Location: Alvis C Story Elementary School
(33.0968°N, 96.6364°W)
Time: 18:51:49
(UTC+00:00)

H-2A R/B (2) - Pass Details

Date: 28 June 2022
Orbit: 428 x 34396 km, 28.9° (Epoch: 07 August)

Event Time Altitude Azimuth Distance (km) Brightness Sun altitude
Rises 05:29:31 0° 139° (SE) 23,619 9.1 -31.8°
Reaches altitude 10° 07:20:45 10° 134° (SE) 35,571 10.1 -32.3°
Maximum altitude 12:55:10 47° 139° (SE) 17,482 9.3 17.5°
Drops below altitude 10° 13:46:25 10° 86° (E) 8,163 9.0 27.9°
Sets 13:50:17 0° 80° (E) 8,013 8.5 28.7°
